Flag for U.S.A. Weather past 2 weeks in Orlando, Florida, U.S.A.

Now
79 °F

Sunny.


Feels Like: 82 °F
Forecast: 72 / 83 °F
Wind: 5 mph from Southwest

Location: Orlando Executive Airport

Current Time: Sep 23, 2014 at 10:28:03 AM

Latest Report: Sep 23, 2014 at 9:53 AM


Visibility: 10 mi

Pressure: 30.03 "Hg

Humidity: 82%

Dew point: 73 °F

Location of OrlandoLocation

Historic Weather in Orlando — Graph

°F

Orlando temperature yesterday

Maximum temperature yesterday: 88 °F (at 12:53 PM)
Minimum temperature yesterday: 73 °F (at 7:53 PM)
Average temperature yesterday: 77 °F

Past Weeks' High & Low Weather Summary

 TemperatureHumidityPressure
High92 °F (Sep 8, 2:53 PM)97% (Sep 17, 5:53 AM)30.18 "Hg (Sep 17, 5:53 AM)
Low71 °F (Sep 19, 10:53 PM)45% (Sep 9, 2:53 PM)29.87 "Hg (Sep 18, 4:53 PM)
Average80 °F78%30.01 "Hg
* Reported Sep 8 8:53 AM — Sep 23 8:53 AM, Orlando, Weather by CustomWeather, © 2014

Note: Actual official high and low records may vary slightly from our data, if they occured in-between our weather recording intervals... More about our weather records

Advertising

Orlando weather history for previous 24 hours

 ConditionsComfort  
Time TempWeatherWind HumidityBarometerVisibility
8:53 AM
Sep 23
75 °FScattered clouds.No wind88%30.03 "Hg10 mi
7:53 AM73 °FPassing clouds.5 mph94%30.02 "Hg10 mi
6:53 AM73 °FPassing clouds.No wind94%30.01 "Hg10 mi
5:53 AM73 °FOvercast.6 mph94%29.99 "Hg10 mi
4:53 AM73 °FPassing clouds.No wind94%29.98 "Hg10 mi
3:53 AM74 °FPassing clouds.No wind94%29.99 "Hg10 mi
2:53 AM74 °FOvercast.3 mph94%30.00 "Hg10 mi
1:53 AM74 °FPassing clouds.No wind94%30.02 "Hg10 mi
12:53 AM73 °FPassing clouds.8 mph94%30.01 "Hg10 mi
12:02 AM73 °FLight rain. Passing clouds.9 mph94%30.00 "Hg10 mi
11:53 PM
Sep 22
73 °FLight rain. Passing clouds.7 mph94%30.01 "Hg10 mi
10:53 PM73 °FPassing clouds.5 mph94%30.01 "Hg10 mi
9:53 PM73 °FLight rain. Passing clouds.No wind94%30.02 "Hg10 mi
8:53 PM73 °FPassing clouds.7 mph90%30.03 "Hg10 mi
7:53 PM73 °FMore clouds than sun.12 mph88%30.04 "Hg10 mi
7:02 PM75 °FLight rain. Broken clouds.21 mph90%30.02 "Hg10 mi
6:53 PM76 °FPartly sunny.12 mph91%30.02 "Hg10 mi
6:04 PM77 °FScattered clouds.3 mph90%30.00 "Hg10 mi
5:53 PM77 °FPartly sunny.5 mph88%30.01 "Hg10 mi
4:53 PM77 °FCloudy.5 mph85%29.99 "Hg10 mi
4:00 PM75 °FHeavy rain. Fog.5 mph90%29.98 "Hg3 mi
2:53 PM82 °FThundershowers. Passing clouds.8 mph70%29.98 "Hg10 mi
1:53 PM86 °FPartly sunny.10 mph63%30.00 "Hg10 mi
12:53 PM88 °FThundershowers. Scattered clouds.7 mph57%30.02 "Hg10 mi
11:53 AM86 °FPassing clouds.No wind65%30.03 "Hg10 mi
10:53 AM83 °FPassing clouds.5 mph74%30.06 "Hg10 mi
Weather by CustomWeather, © 2014

See weather overviewHow to use our weather pages